Home   Weather   Larnaca   Past weeks

Flag for Cyprus Past Weather in Larnaca, Cyprus — Yesterday and Last 2 Weeks

Now
90 °F

Passing clouds.


Feels Like: 95 °F
Forecast: 74 / 88 °F
Wind: 20 mph from Southwest

Location: Larnaca Airport

Current Time: Aug 17, 2017 at 1:11:58 pm

Latest Report: Aug 17, 2017 at 12:30 pm


Visibility: N/A

Pressure: 29.68 "Hg

Humidity: 52%

Dew Point: 70 °F

Location of LarnacaLocation

Past Weather in Larnaca — Graph

°F

Larnaca Temperature Yesterday

Maximum temperature yesterday: 91 °F (at 2:00 pm)
Minimum temperature yesterday: 72 °F (at 6:00 am)
Average temperature yesterday: 82 °F

High & Low Weather Summary for the Past Weeks

 TemperatureHumidityPressure
High95 °F (Aug 8, 3:00 pm)100% (Aug 3, 1:30 am)29.80 "Hg (Aug 3, 1:30 am)
Low72 °F (Aug 16, 6:00 am)34% (Aug 15, 4:00 pm)29.59 "Hg (Aug 16, 4:30 pm)
Average84 °F71%29.71 "Hg
* Reported Aug 2 12:00 pm — Aug 17 12:00 pm, Larnaca. Weather by CustomWeather, © 2017

Note: Actual official high and low records may vary slightly from our data, if they occured in-between our weather recording intervals... More about our weather records

Advertising

Larnaca Weather History for the Previous 24 Hours

Scroll right to see more
 ConditionsComfort  
Time TempWeatherWind HumidityBarometerVisibility
12:00 pm
Thu, Aug 17
88 °FPassing clouds.20 mph59%29.68 "HgN/A
11:30 am88 °FSunny.18 mph55%29.68 "Hg10 mi
11:00 am88 °FSunny.17 mph55%29.68 "Hg10 mi
10:30 am86 °FSunny.16 mph59%29.68 "Hg10 mi
10:00 am86 °FSunny.14 mph59%29.68 "Hg10 mi
9:30 am84 °FPassing clouds.12 mph62%29.68 "HgN/A
9:00 am84 °FSunny.10 mph58%29.68 "Hg10 mi
8:30 am82 °FPassing clouds.8 mph62%29.68 "HgN/A
8:00 am81 °FPassing clouds.3 mph66%29.68 "HgN/A
7:30 am79 °FPassing clouds.1 mph74%29.65 "HgN/A
7:00 am75 °FPassing clouds.2 mph78%29.65 "HgN/A
6:30 am73 °FScattered clouds.5 mph83%29.65 "HgN/A
6:00 am73 °FPassing clouds.2 mph83%29.65 "HgN/A
5:30 am75 °FPassing clouds.5 mph78%29.65 "HgN/A
5:00 am75 °FPassing clouds.5 mph78%29.65 "HgN/A
4:30 am73 °FPassing clouds.5 mph83%29.65 "HgN/A
4:00 am73 °FPassing clouds.2 mph83%29.62 "HgN/A
3:00 am73 °FClear.5 mph83%29.62 "Hg10 mi
2:30 am73 °FClear.5 mph83%29.62 "Hg10 mi
2:00 am75 °FClear.2 mph83%29.62 "Hg10 mi
1:30 am75 °FClear.2 mph83%29.62 "Hg10 mi
1:00 am77 °FClear.5 mph83%29.62 "Hg10 mi
12:30 am77 °FClear.6 mph83%29.65 "Hg10 mi
12:00 am79 °FClear.6 mph84%29.65 "Hg10 mi
11:30 pm
Wed, Aug 16
79 °FClear.7 mph74%29.65 "Hg10 mi
11:00 pm79 °FClear.6 mph79%29.62 "Hg10 mi
10:30 pm81 °FClear.8 mph74%29.62 "Hg10 mi
10:00 pm81 °FClear.8 mph74%29.62 "Hg10 mi
9:30 pm81 °FClear.8 mph74%29.62 "Hg10 mi
9:00 pm82 °FClear.9 mph70%29.62 "Hg10 mi
8:30 pm82 °FClear.10 mph70%29.62 "Hg10 mi
8:00 pm82 °FClear.12 mph70%29.62 "Hg10 mi
7:30 pm84 °FSunny.13 mph66%29.59 "Hg10 mi
7:00 pm86 °FSunny.15 mph62%29.59 "Hg10 mi
6:30 pm86 °FSunny.20 mph62%29.59 "Hg10 mi
6:00 pm86 °FSunny.22 mph59%29.59 "Hg10 mi
5:30 pm88 °FPassing clouds.24 mph59%29.59 "HgN/A
5:00 pm90 °FPassing clouds.23 mph59%29.59 "HgN/A
4:30 pm90 °FPassing clouds.23 mph55%29.59 "HgN/A
4:00 pm88 °FPassing clouds.21 mph59%29.62 "HgN/A
3:30 pm90 °FPassing clouds.21 mph55%29.62 "HgN/A
3:00 pm90 °FPassing clouds.20 mph52%29.62 "HgN/A
2:30 pm90 °FPassing clouds.18 mph49%29.62 "HgN/A
2:00 pm91 °FPassing clouds.13 mph46%29.62 "HgN/A
1:30 pm90 °FPassing clouds.13 mph49%29.65 "HgN/A
1:00 pm88 °FPassing clouds.13 mph55%29.65 "HgN/A
Weather by CustomWeather, © 2017

See weather overviewHow to use our weather pages